Flag for U.S.A. Weather past 2 weeks in Monterey, California, U.S.A.

Now
52 °F

Mostly cloudy.


Feels Like: 49 °F
Forecast: 52 / 59 °F
Wind: 8 mph from Southwest

Location: Monterey Peninsula Airport

Current Time: May 6, 2015 at 4:35:05 AM

Latest Report: May 6, 2015 at 3:54 AM


Visibility: 10 mi

Pressure: 30.00 "Hg

Humidity: 75%

Dew point: 44 °F

Location of MontereyLocation

Historic Weather in Monterey — Graph

°F

Monterey temperature yesterday

Maximum temperature yesterday: 61 °F (at 2:54 PM)
Minimum temperature yesterday: 52 °F (at 1:54 AM)
Average temperature yesterday: 55 °F

Past Weeks' High & Low Weather Summary

 TemperatureHumidityPressure
High82 °F (Apr 30, 3:54 PM)96% (Apr 25, 6:54 AM)30.21 "Hg (Apr 25, 6:54 AM)
Low45 °F (Apr 30, 4:54 AM)20% (Apr 30, 3:54 PM)29.83 "Hg (Apr 30, 4:54 PM)
Average56 °F73%30.00 "Hg
* Reported Apr 21 2:54 AM — May 6 2:54 AM, Monterey, Weather by CustomWeather, © 2015

Note: Actual official high and low records may vary slightly from our data, if they occured in-between our weather recording intervals... More about our weather records

Advertising

Monterey weather history for previous 24 hours

 ConditionsComfort  
Time TempWeatherWind HumidityBarometerVisibility
2:54 AM
Wed, May 6
52 °FOvercast.8 mph75%30.01 "Hg10 mi
1:54 AM53 °FOvercast.10 mph72%30.02 "Hg10 mi
12:54 AM53 °FOvercast.10 mph72%30.02 "Hg10 mi
11:54 PM
Tue, May 5
53 °FOvercast.10 mph72%30.03 "Hg10 mi
10:54 PM53 °FOvercast.7 mph74%30.03 "Hg10 mi
9:54 PM53 °FOvercast.7 mph74%30.04 "Hg10 mi
8:54 PM54 °FOvercast.8 mph72%30.03 "Hg10 mi
7:54 PM54 °FPartly sunny.10 mph69%30.02 "Hg9 mi
6:54 PM55 °FOvercast.13 mph67%30.02 "Hg9 mi
6:01 PM57 °FOvercast.13 mph63%29.99 "Hg10 mi
4:54 PM59 °FScattered clouds.15 mph58%30.02 "Hg10 mi
3:54 PM60 °FPartly sunny.13 mph56%30.04 "Hg10 mi
2:54 PM61 °FScattered clouds.14 mph54%30.04 "Hg10 mi
1:54 PM60 °FPartly sunny.13 mph58%30.05 "Hg10 mi
12:54 PM60 °FPartly sunny.14 mph56%30.06 "Hg10 mi
11:54 AM59 °FPartly sunny.14 mph60%30.06 "Hg10 mi
10:54 AM57 °FPartly sunny.12 mph64%30.07 "Hg10 mi
9:54 AM56 °FOvercast.9 mph65%30.06 "Hg10 mi
8:54 AM54 °FOvercast.7 mph74%30.06 "Hg10 mi
7:54 AM53 °FOvercast.7 mph74%30.05 "Hg10 mi
6:54 AM53 °FOvercast.3 mph74%30.05 "Hg10 mi
5:54 AM52 °FOvercast.7 mph77%30.03 "Hg10 mi
4:54 AM52 °FOvercast.3 mph75%30.03 "Hg10 mi
Weather by CustomWeather, © 2015

See weather overviewHow to use our weather pages